When you browse on this site, cookies collect data to enhance your experience and personalize the content and advertising you see.
Visit our Privacy Policy to learn more. By continuing to use the site, you agree to this use of cookies and data.
  • En España
  • Lista de países
  • Para 7 días
  • Temperatura del agua
  • Mapa Satelital
  • El tiempo en el mapa
  • Informadores
  • user-avatar
    Iniciar sesión

    Tiempo cada hora Schokino

    Hoy, 22 Marzo, Viernes

    Tiempo Temperatura Precipitaciones Viento Presión Humedad
    00:00 -3°C° 0 mm 2 mps 742 mmHg 93%
    01:00 -3°C° 0 mm 2 mps 741 mmHg 93%
    02:00 -3°C° 0 mm 2 mps 741 mmHg 92%
    03:00 -3°C° 0 mm 2 mps 741 mmHg 91%
    04:00 -3°C° 0 mm 2 mps 740 mmHg 91%
    05:00 -4°C° 0 mm 3 mps 740 mmHg 91%
    06:00 -2°C° 0 mm 3 mps 739 mmHg 90%
    07:00 -3°C° 0.1 mm 4 mps 738 mmHg 89%
    08:00 -2°C° 0.1 mm 5 mps 737 mmHg 87%
    09:00 -2°C° 0.1 mm 6 mps 736 mmHg 85%
    10:00 -2°C° 0.9 mm 6 mps 735 mmHg 87%
    11:00 -2°C° 0.9 mm 7 mps 734 mmHg 89%
    12:00 -1°C° 0.9 mm 7 mps 733 mmHg 91%
    13:00 -1°C° 0.8 mm 8 mps 733 mmHg 90%
    14:00 -1°C° 0.8 mm 8 mps 732 mmHg 89%
    15:00 -1°C° 0.8 mm 8 mps 732 mmHg 89%
    16:00 -2°C° 0.4 mm 8 mps 732 mmHg 86%
    17:00 -2°C° 0.4 mm 8 mps 733 mmHg 83%
    18:00 -3°C° 0.4 mm 9 mps 733 mmHg 80%
    19:00 -4°C° 0.2 mm 8 mps 733 mmHg 81%
    20:00 -4°C° 0.2 mm 8 mps 734 mmHg 83%
    21:00 -5°C° 0.2 mm 8 mps 734 mmHg 84%
    22:00 -4°C° 0.1 mm 7 mps 734 mmHg 84%
    23:00 -4°C° 0.1 mm 7 mps 734 mmHg 84%

    Mañana, 23 Marzo, Sábado

    Tiempo Temperatura Precipitaciones Viento Presión Humedad
    00:00 -4°C° 0.1 mm 7 mps 734 mmHg 85%
    01:00 -4°C° 0.1 mm 7 mps 734 mmHg 86%
    02:00 -4°C° 0.1 mm 7 mps 734 mmHg 87%
    03:00 -4°C° 0.1 mm 7 mps 734 mmHg 88%
    04:00 -3°C° 0.1 mm 7 mps 735 mmHg 88%
    05:00 -3°C° 0.1 mm 7 mps 735 mmHg 89%
    06:00 -3°C° 0.1 mm 7 mps 736 mmHg 90%
    07:00 -3°C° 0 mm 7 mps 737 mmHg 90%
    08:00 -3°C° 0 mm 7 mps 738 mmHg 90%
    09:00 -3°C° 0 mm 7 mps 739 mmHg 89%
    10:00 -3°C° 0 mm 6 mps 740 mmHg 88%
    11:00 -3°C° 0 mm 6 mps 741 mmHg 87%
    12:00 -3°C° 0 mm 6 mps 741 mmHg 86%
    13:00 -2°C° 0.1 mm 5 mps 742 mmHg 85%
    14:00 -2°C° 0.1 mm 5 mps 742 mmHg 84%
    15:00 -2°C° 0.1 mm 4 mps 742 mmHg 83%
    16:00 -2°C° 0 mm 4 mps 742 mmHg 84%
    17:00 -1°C° 0 mm 3 mps 742 mmHg 85%
    18:00 -1°C° 0 mm 2 mps 742 mmHg 85%
    19:00 -2°C° 0 mm 2 mps 742 mmHg 87%
    20:00 -2°C° 0 mm 2 mps 743 mmHg 88%
    21:00 0°C° 0 mm 1 mps 743 mmHg 90%
    22:00 -1°C° 0 mm 1 mps 743 mmHg 90%
    23:00 -1°C° 0 mm 1 mps 742 mmHg 89%

    Pasado mañana, 24 Marzo, Domingo

    Tiempo Temperatura Precipitaciones Viento Presión Humedad
    00:00 -1°C° 0 mm 1 mps 742 mmHg 89%
    01:00 -1°C° 0 mm 1 mps 742 mmHg 89%
    02:00 -2°C° 0 mm 1 mps 742 mmHg 89%
    03:00 -2°C° 0 mm 1 mps 741 mmHg 89%
    04:00 -4°C° 0 mm 2 mps 741 mmHg 89%
    05:00 -4°C° 0 mm 2 mps 740 mmHg 89%
    06:00 -4°C° 0 mm 2 mps 740 mmHg 89%
    07:00 -5°C° 0 mm 3 mps 740 mmHg 87%
    08:00 -4°C° 0 mm 3 mps 739 mmHg 85%
    09:00 -3°C° 0 mm 4 mps 739 mmHg 83%
    10:00 -3°C° 0.2 mm 4 mps 738 mmHg 84%
    11:00 -2°C° 0.2 mm 5 mps 738 mmHg 86%
    12:00 -2°C° 0.2 mm 5 mps 737 mmHg 88%
    13:00 -2°C° 0.2 mm 5 mps 737 mmHg 89%
    14:00 -2°C° 0.2 mm 5 mps 736 mmHg 90%
    15:00 -1°C° 0.2 mm 5 mps 736 mmHg 91%
    16:00 -1°C° 0.1 mm 5 mps 736 mmHg 91%
    17:00 -1°C° 0.1 mm 4 mps 735 mmHg 92%
    18:00 0°C° 0.1 mm 3 mps 735 mmHg 93%
    19:00 0°C° 0.1 mm 3 mps 735 mmHg 92%
    20:00 -1°C° 0.1 mm 3 mps 735 mmHg 92%
    21:00 -1°C° 0.1 mm 3 mps 735 mmHg 91%
    22:00 -1°C° 0 mm 3 mps 735 mmHg 90%
    23:00 -2°C° 0 mm 3 mps 735 mmHg 88%

    25 Marzo, Lunes

    Tiempo Temperatura Precipitaciones Viento Presión Humedad
    00:00 -2°C° 0 mm 3 mps 735 mmHg 87%
    01:00 -4°C° 0 mm 3 mps 735 mmHg 87%
    02:00 -4°C° 0 mm 3 mps 735 mmHg 87%
    03:00 -5°C° 0 mm 3 mps 735 mmHg 88%
    04:00 -5°C° 0 mm 3 mps 735 mmHg 88%
    05:00 -5°C° 0 mm 3 mps 735 mmHg 89%
    06:00 -5°C° 0 mm 3 mps 735 mmHg 90%
    07:00 -5°C° 0 mm 4 mps 735 mmHg 88%
    08:00 -4°C° 0 mm 4 mps 735 mmHg 85%
    09:00 -4°C° 0 mm 5 mps 736 mmHg 83%
    10:00 -4°C° 0 mm 5 mps 736 mmHg 79%
    11:00 -2°C° 0 mm 5 mps 736 mmHg 75%
    12:00 -2°C° 0 mm 5 mps 736 mmHg 70%
    13:00 -1°C° 0.1 mm 5 mps 736 mmHg 69%
    14:00 -1°C° 0.1 mm 5 mps 736 mmHg 67%
    15:00 -1°C° 0.1 mm 5 mps 736 mmHg 65%
    16:00 -1°C° 0 mm 4 mps 736 mmHg 67%
    17:00 -2°C° 0 mm 4 mps 736 mmHg 68%
    18:00 -1°C° 0 mm 3 mps 736 mmHg 69%
    19:00 -2°C° 0 mm 2 mps 736 mmHg 72%
    20:00 -2°C° 0 mm 2 mps 737 mmHg 74%
    21:00 -3°C° 0 mm 2 mps 737 mmHg 77%
    22:00 -3°C° 0 mm 2 mps 737 mmHg 77%
    23:00 -3°C° 0 mm 2 mps 737 mmHg 78%

    26 Marzo, Martes

    Tiempo Temperatura Precipitaciones Viento Presión Humedad
    00:00 -3°C° 0 mm 2 mps 737 mmHg 78%
    01:00 -4°C° 0 mm 3 mps 737 mmHg 79%
    02:00 -4°C° 0 mm 3 mps 737 mmHg 80%
    03:00 -4°C° 0 mm 3 mps 737 mmHg 81%
    04:00 -4°C° 0 mm 3 mps 737 mmHg 81%
    05:00 -4°C° 0 mm 3 mps 737 mmHg 81%
    06:00 -4°C° 0 mm 3 mps 737 mmHg 81%
    07:00 -3°C° 0 mm 4 mps 737 mmHg 77%
    08:00 -3°C° 0 mm 4 mps 737 mmHg 72%
    09:00 -2°C° 0 mm 5 mps 737 mmHg 68%
    10:00 -1°C° 0 mm 5 mps 738 mmHg 64%
    11:00 0°C° 0 mm 5 mps 738 mmHg 60%
    12:00 +1°C° 0 mm 5 mps 738 mmHg 56%
    13:00 +1°C° 0 mm 5 mps 738 mmHg 55%
    14:00 +2°C° 0 mm 5 mps 737 mmHg 53%
    15:00 +2°C° 0 mm 5 mps 737 mmHg 52%
    16:00 +1°C° 0.2 mm 4 mps 737 mmHg 62%
    17:00 +1°C° 0.2 mm 3 mps 737 mmHg 71%
    18:00 +1°C° 0.2 mm 2 mps 737 mmHg 81%
    19:00 -1°C° 0.1 mm 2 mps 737 mmHg 85%
    20:00 -1°C° 0.1 mm 2 mps 737 mmHg 89%
    21:00 -2°C° 0.1 mm 2 mps 737 mmHg 93%
    22:00 -2°C° 0 mm 2 mps 737 mmHg 92%
    23:00 -3°C° 0 mm 2 mps 737 mmHg 90%

    27 Marzo, Miércoles

    Tiempo Temperatura Precipitaciones Viento Presión Humedad
    00:00 -3°C° 0 mm 2 mps 736 mmHg 88%
    01:00 -4°C° 0 mm 3 mps 736 mmHg 85%
    02:00 -4°C° 0 mm 3 mps 735 mmHg 81%
    03:00 -4°C° 0 mm 4 mps 735 mmHg 77%
    04:00 -4°C° 0.1 mm 4 mps 734 mmHg 77%
    05:00 -4°C° 0.1 mm 4 mps 734 mmHg 78%
    06:00 -5°C° 0.1 mm 5 mps 733 mmHg 78%
    07:00 -4°C° 0.3 mm 5 mps 733 mmHg 79%
    08:00 -4°C° 0.3 mm 6 mps 733 mmHg 81%
    09:00 -3°C° 0.3 mm 6 mps 732 mmHg 82%
    10:00 -3°C° 0.2 mm 6 mps 733 mmHg 77%
    11:00 -2°C° 0.2 mm 5 mps 733 mmHg 72%
    12:00 -1°C° 0.2 mm 5 mps 733 mmHg 67%
    13:00 -1°C° 0.3 mm 5 mps 733 mmHg 65%
    14:00 -1°C° 0.3 mm 5 mps 733 mmHg 63%
    15:00 -2°C° 0.3 mm 6 mps 734 mmHg 61%
    16:00 -1°C° 0.1 mm 5 mps 734 mmHg 63%
    17:00 -2°C° 0.1 mm 5 mps 735 mmHg 65%
    18:00 -2°C° 0.1 mm 5 mps 735 mmHg 67%
    19:00 -4°C° 0 mm 5 mps 736 mmHg 71%
    20:00 -4°C° 0 mm 6 mps 737 mmHg 75%
    21:00 -5°C° 0 mm 6 mps 738 mmHg 79%
    22:00 -5°C° 0 mm 6 mps 738 mmHg 82%
    23:00 -5°C° 0 mm 5 mps 739 mmHg 84%
    Mostrar más